Truth Or Consequences, NM

8:52 PM MDT on March 23, 2017 (GMT -0600)
Truth Or Consequences Municipal

Weather History for KTCS - October, 2013

Change the Weather History Date:

Thursday, October 31, 2013

  Actual Average Record
Temperature  
Mean Temperature 52 °F -  
Max Temperature 64 °F 69 °F 82 °F (1997)
Min Temperature 40 °F 42 °F 36 °F (1999)
Degree Days  
Heating Degree Days 13    
Month to date heating degree days 162  
Since 1 July heating degree days 173  
Cooling Degree Days 0    
Month to date cooling degree days 17  
Year to date cooling degree days 1839  
Growing Degree Days 2 (Base 50)    
Moisture  
Dew Point 21 °F    
Average Humidity 35    
Maximum Humidity 51    
Minimum Humidity 19    
Precipitation  
Precipitation 0.00 in - 0.58 in (1998)
Month to date precipitation 0.13  
Year to date precipitation 11.26  
Sea Level Pressure  
Sea Level Pressure 29.94 in    
Wind  
Wind Speed 9 mph (WNW)    
Max Wind Speed 21 mph    
Max Gust Speed 25 mph    
Visibility 10 miles    
Events      
T = Trace of Precipitation, MM = Missing Value Source: NWS Daily Summary

Daily Weather History Graph

Daily Weather History Graph

Search for Another Location

Airport or City:

Trip Planner

Search our weather history database for the weather conditions in past years. The results will help you decide how hot, cold, wet, or windy it might be!

Date:

Astronomy

Oct. 31, 2013 Rise Set
Actual Time 7:26 AM MDT 6:18 PM MDT
Civil Twilight 7:01 AM MDT 6:43 PM MDT
Nautical Twilight 6:31 AM MDT 7:12 PM MDT
Astronomical Twilight 6:03 AM MDT 7:41 PM MDT
Moon 4:27 AM MDT (10/31) 4:30 PM MDT (10/31)
Length of Visible Light 11h 42m
Length of Day
10h 51m
Waning Crescent, 9% of the Moon is Illuminated
Oct 31
Waning Crescent
Nov 3
New
Nov 9
First Quarter
Nov 17
Full
Nov 25
Last Quarter

Hourly Weather History & Observations

Time (MDT) Temp. Windchill Dew Point Humidity Pressure Visibility Wind Dir Wind Speed Gust Speed Precip Events Conditions
12:53 AM 45.0 °F 40.6 °F 24.1 °F 44% 29.91 in 10.0 mi NW 8.1 mph - N/A   Clear
1:53 AM 43.0 °F 38.2 °F 24.1 °F 47% 29.92 in 10.0 mi WNW 8.1 mph - N/A   Clear
2:53 AM 43.0 °F 37.7 °F 24.1 °F 47% 29.94 in 10.0 mi WNW 9.2 mph - N/A   Clear
3:53 AM 41.0 °F 35.2 °F 24.1 °F 51% 29.95 in 10.0 mi West 9.2 mph - N/A   Clear
4:53 AM 42.1 °F 37.7 °F 23.0 °F 47% 29.95 in 10.0 mi WNW 6.9 mph - N/A   Clear
5:53 AM 43.0 °F 36.8 °F 24.1 °F 47% 29.97 in 10.0 mi WNW 11.5 mph - N/A   Clear
6:53 AM 41.0 °F 34.3 °F 24.1 °F 51% 30.00 in 10.0 mi WNW 11.5 mph - N/A   Clear
7:53 AM 43.0 °F 36.0 °F 24.1 °F 47% 30.01 in 10.0 mi WNW 13.8 mph - N/A   Clear
8:53 AM 46.0 °F 41.4 °F 24.1 °F 42% 30.05 in 10.0 mi NW 9.2 mph - N/A   Clear
9:53 AM 51.1 °F - 23.0 °F 33% 30.03 in 10.0 mi WNW 18.4 mph 24.2 mph N/A   Clear
10:53 AM 54.0 °F - 21.0 °F 28% 30.02 in 10.0 mi NW 13.8 mph 23.0 mph N/A   Clear
11:53 AM 57.9 °F - 19.9 °F 23% 29.99 in 10.0 mi NW 9.2 mph 17.3 mph N/A   Clear
12:53 PM 60.1 °F - 19.9 °F 21% 29.96 in 10.0 mi Variable 4.6 mph - N/A   Clear
1:53 PM 61.0 °F - 21.0 °F 21% 29.92 in 10.0 mi Variable 5.8 mph - N/A   Clear
2:53 PM 62.1 °F - 19.9 °F 20% 29.89 in 10.0 mi SSW 5.8 mph - N/A   Clear
3:53 PM 62.1 °F - 19.0 °F 19% 29.88 in 10.0 mi ESE 6.9 mph - N/A   Clear
4:53 PM 63.0 °F - 19.0 °F 18% 29.87 in 10.0 mi SE 8.1 mph - N/A   Clear
5:53 PM 62.1 °F - 19.0 °F 19% 29.86 in 10.0 mi SSE 3.5 mph - N/A   Clear
6:53 PM 55.0 °F - 21.0 °F 27% 29.90 in 10.0 mi ESE 5.8 mph - N/A   Clear
7:53 PM 55.9 °F - 21.0 °F 26% 29.91 in 10.0 mi North 3.5 mph - N/A   Clear
8:53 PM 54.0 °F - 19.9 °F 26% 29.92 in 10.0 mi NW 8.1 mph - N/A   Clear
9:53 PM 55.0 °F - 17.1 °F 23% 29.93 in 10.0 mi NNW 11.5 mph - N/A   Clear
10:53 PM 53.1 °F - 16.0 °F 23% 29.93 in 10.0 mi NW 13.8 mph - N/A   Clear
11:53 PM 53.1 °F - 15.1 °F 22% 29.94 in 10.0 mi NW 9.2 mph 19.6 mph N/A   Clear